Погода в Бернсдейле

Австралия     37°49′38″S   147°37′18″E
темп.,
°C
ветер,
м/с
пор.,
м/с
влажн.,
%
обл.,
%
осадки,
мм/ч
давл.,
гПа
погр.,
м
19 января, вт
вт1923:00+14зюз3117810 0.0 1016838
02:00+14зюз3107693 0.1 10171140
05:00+10з2109055 0.1 1018662
08:00+12зюз486797 0.0 10211183
11:00+18юз344084 0.0 10211454
14:00+21ююв55350 0.0 10201401
17:00+17юв46480 0.0 1020945
20:00+13юв25610 0.0 1022746
20 января, ср
ср2023:00+8ссз12840 0.0 102423
02:00+7ссз22900 0.0 102430
05:00+6ссз22940 0.0 102329
08:00+12с12610 0.0 1025213
11:00+21вюв23300 0.0 10231000
14:00+23юв44300 0.0 1021974
17:00+21юв46410 0.0 1018767
20:00+16вюв36620 0.0 1020469
21 января, чт
чт2123:00+10с12940 0.0 102022
02:00+9ссз12950 0.0 101823
05:00+9ссз12930 0.0 101723
08:00+16всв01595 0.0 1016137
11:00+28ююв122736 0.0 1015722
14:00+31ююв442383 0.0 10121349
17:00+26юв453491 0.0 1010561
20:00+19ююв0157100 0.0 101024
22 января, пт
пт2223:00+16с226079 0.0 101035
02:00+16сз225849 0.0 100834
05:00+14сз116228 0.0 100730
08:00+19зюз245151 0.0 1008167
11:00+26ююз343476 0.0 1009783
14:00+29ююв5529100 0.0 10081135
17:00+25юв4537100 0.0 1008703
20:00+20в235499 0.0 1010163
23 января, сб
сб2323:00+14св117287 0.0 101323
02:00+12ссз127725 0.0 101224
05:00+11сз118514 0.0 101222
08:00+17ююз005957 0.0 1013133
11:00+27юв223058 0.0 1012782
14:00+28ююв553034 0.0 1011725
17:00+24юв464618 0.0 1010604
20:00+20юв23630 0.0 1012213